Вернуться в каталог

CZ-6A DEB

АктивенSSO
NORAD 54267·DEBRIS·🇨🇳 China

Запущен Nov 11, 2022 с Taiyuan Satellite Launch Center

Loading…

Ближайшие Пролёты (ближайшие 24 часа)

TLE

СвежийSource: Space-Track

Эпоха: Sep 14, 2026, 11:15 UTC

1 54267U 22151J   26257.46920589  .00001329  00000-0  35946-3 0  9995
2 54267  98.7960 336.9962 0086225   7.6693 352.5795 14.47404499202115

Отслеживайте CZ-6A DEB в реальном времени с AllMySat

Download on the App Store